Ali-Bayramly

Azerbaijan     39˚56′44″N   48˚57′22″E
temp.,
°C
wind,
m/s
gust,
m/s
humid.,
%
clouds,
%
prec.,
mm/h
press.,
hPa
HPBL,
m
1 december, tue
tue101:00+8˚ne486770 0.0 1025245
04:00+7˚n127274 0.0 102426
07:00+8˚wnw1172100 0.0 102428
10:00+8˚nw1270100 0.0 1024114
13:00+10˚nw2264100 0.0 1023393
16:00+11˚wnw226194 0.0 1023484
19:00+10˚nw116999 0.0 102454
22:00+9˚w227389 0.0 102525
2 december, wed
wed201:00+8˚nw237633 0.0 102527
04:00+7˚nw237817 0.0 102522
07:00+6˚nw23780 0.0 102622
10:00+9˚nnw11640 0.0 1027125
13:00+12˚ene22540 0.0 1026616
16:00+13˚e33546 0.0 1026810
19:00+10˚ne61082100 0.0 1027325
22:00+10˚ene71084100 0.0 1028434
3 december, thu
thu301:00+9˚ne61083100 0.0 1028397
04:00+8˚ne5780100 0.0 1028382
07:00+8˚ene5878100 0.0 1029316
10:00+8˚ne5777100 0.0 1030331
13:00+9˚ene3473100 0.0 1030442
16:00+10˚ene3369100 0.0 1029646
19:00+9˚e467583 0.0 1030442
22:00+8˚ene567692 0.0 1030335
4 december, fri
fri401:00+8˚ene3576100 0.0 1030297
04:00+8˚ene3578100 0.0 1029279
07:00+8˚ene3579100 0.1 1029249
10:00+8˚ne3480100 0.1 1030243
13:00+10˚ene3372100 0.0 1028546
16:00+10˚e347392 0.1 1027575
19:00+9˚e3583100 0.2 1027363
22:00+9˚ne4586100 1.0 1027288
5 december, sat
sat501:00+9˚n3590100 3.3 1026226
04:00+9˚nnw2390100 7.0 1025189
07:00+9˚nnw2486100 0.2 1025125
10:00+9˚wnw3378100 0.2 1026206
13:00+11˚nw1168100 0.1 1025448
16:00+11˚e347995 0.2 1024336
19:00+10˚e7991100 1.7 1025511
22:00+8˚ene91187100 5.4 1026481